Tracking 20241 objects as of 25-Jan-2020
HD Live streaming from Space Station
objects crossing your sky now

THOR 3

Track THOR 3 now!
THOR 3 is classified as:


NORAD ID: 25358
Int'l Code: 1998-035A
Perigee: 36,194.8 km
Apogee: 36,212.0 km
Inclination: 7.5 °
Period: 1,457.1 minutes
Semi major axis: 42574 km
RCS: 23.5207 m2 (large)
Launch date: June 10, 1998
Source: Norway (NOR)
Launch site: AIR FORCE EASTERN TEST RANGE (AFETR)

14 Ku-band; Nordic region, central and eastern Europe.
aabbcc
Your satellite tracking list
Your tracking list is empty




NASA's NSSDC Master Catalog

Two Line Element Set (TLE):
1 25358U 98035A   20024.46566591 -.00000111  00000-0  00000+0 0  9991
2 25358   7.4804  54.5447 0002015 252.4791 271.6429  0.98828093 79256
Source of the keplerian elements: AFSPC